Maxxis British MX Championship Rnd 5 Duns Scotland
Results of Maxxis MX1 - Qualification


Pos No. Name Sponsor Best Tm In Lap Diff
1 1 Graeme Irwin Hitachi KTM UK ASA Scaffolding 1:55.681 4
2 777 Evgeny Bobryshev Lombard Express Suzuki 1:57.957 2 2.276
3 100 Tommy Searle Bike IT DRT Kawasaki 1:58.155 4 2.474
4 128 Ivo Monticelli I-FLY JK YAMAHA RACING 1:58.340 5 2.659
5 44 Elliott Banks-Browne Geartec Husqvana 1:58.583 4 2.902
6 45 Jake Nicholls Buildbase Honda Racing 1:58.602 7 2.921
7 37 Gert Krestinov Phoenix Tools Apico Honda Racing 1:59.103 5 3.422
8 60 Brad Anderson Verde Substance KTM 2:00.470 4 4.789
9 227 Kristian Whatley RHR Yamaha 2:00.471 3 4.790
10 119 Ryan Houghton RHR Yamaha 2:00.672 6 4.991
11 111 Eythor Reynisson M Smith KTM 2:00.685 1 5.004
12 173 Luke Norris Geartec Husqvarna Racing 2:01.079 5 5.398
13 491 John Adamson 2:01.281 4 5.600
14 95 Daniel Thornhill Cabscreens Honda 2:01.758 4 6.077
15 6 Carlton Husband Phoenix Tools Apico Honda Racing 2:02.190 1 6.509
16 25 Jamie Law Dulson Racing Apico RSS Yamaha 2:02.639 1 6.958
17 17 Luke Smith Norman Watt Motorcycles, Kawasaki 2:02.870 1 7.189
18 295 Ross Rutherford Site Sealants DCL KTM 2:03.259 1 7.578
19 411 Declan Whittle Hertsmx Husqvarna 2:04.007 1 8.326
20 11 Matt Burrows Apico Husqvarna 2:04.186 1 8.505
21 301 Shaun Southgate Herts MX - Honda UK 2:04.218 5 8.537
22 49 Luke Parker GH Motorcycles GB Finch HRM Boilers - Husqvarana 2:04.264 1 8.583
23 311 Aaron McCarroll RAD RSS Yamaha 2:04.381 1 8.700
24 293 Ryan McLean 2:04.688 1 9.007
25 360 Nathan Dixon RFX Crescent Yamaha 2:04.755 2 9.074
26 171 Zac Stealey Dulson Training /RSS Racing - Yamaha 2:05.529 1 9.848
27 28 John Robson 2:06.073 5 10.392
28 300 Charlie Hamlet Colwyn Bay Honda 2:09.531 4 13.850
29 447 Simon Booth Acerbis UK - KTM 2:11.090 6 15.409
30 691 Aidan Wigger South Coast Honda Racing 2:13.920 3 18.239
31 63 Jordan Divall Powered by Evo-tech HR kawasaki 0
Generated on 30/07/2018 21:49